| time (UTC) | temp F | wind direction | speed knots | gust knots | rain 1hr in | rain 24hr in | rain mn in | humidity % | barometer mb |
| 20260508131029 | 58 | 193 | 1.7 | 4.3 | 0.00 | 0.00 | 0.00 | 68 | 1015.0 |
| 20260508130015 | 56 | 191 | 0.9 | 1.7 | 0.00 | 0.00 | 0.00 | 72 | 1015.0 |
| 20260508125019 | 54 | 180 | 0.9 | 2.6 | 0.00 | 0.00 | 0.00 | 75 | 1015.0 |
| 20260508124023 | 53 | 206 | 1.7 | 4.3 | 0.00 | 0.00 | 0.00 | 76 | 1015.0 |
| 20260508123028 | 52 | 232 | 0.9 | 1.7 | 0.00 | 0.00 | 0.00 | 78 | 1015.0 |
| 20260508122032 | 51 | 189 | 1.7 | 3.5 | 0.00 | 0.00 | 0.00 | 80 | 1015.0 |
| 20260508121018 | 50 | 210 | 0.9 | 1.7 | 0.00 | 0.00 | 0.00 | 82 | 1015.0 |
| 20260508120022 | 49 | 203 | 0.9 | 2.6 | 0.00 | 0.00 | 0.00 | 84 | 1015.0 |
| 20260508115026 | 47 | 186 | 0.9 | 1.7 | 0.00 | 0.00 | 0.00 | 89 | 1014.9 |
| 20260508114031 | 44 | 0.0 | 0.0 | 0.00 | 0.00 | 0.00 | 95 | 1014.9 | |
| 20260508113017 | 44 | 0.0 | 0.0 | 0.00 | 0.00 | 0.00 | 97 | 1014.8 | |
| 20260508112021 | 43 | 203 | 0.0 | 1.7 | 0.00 | 0.00 | 0.00 | 99 | 1014.7 |
| 20260508111025 | 42 | 0.0 | 0.0 | 0.00 | 0.00 | 0.00 | 99 | 1014.6 | |
| 20260508110049 | 40 | 0.0 | 0.0 | 0.00 | 0.00 | 0.00 | 99 | 1014.5 | |
| 20260508105036 | 39 | 0.0 | 0.0 | 0.00 | 0.00 | 0.00 | 99 | 1014.3 | |
| 20260508104020 | 39 | 0.0 | 0.0 | 0.00 | 0.00 | 0.00 | 99 | 1014.3 | |
| 20260508103023 | 40 | 0.0 | 0.0 | 0.00 | 0.00 | 0.00 | 99 | 1014.4 | |
| 20260508102027 | 40 | 0.0 | 0.0 | 0.00 | 0.00 | 0.00 | 99 | 1014.3 | |
| 20260508101031 | 40 | 0.0 | 0.0 | 0.00 | 0.00 | 0.00 | 99 | 1014.3 | |
| 20260508100017 | 41 | 0.0 | 0.0 | 0.00 | 0.00 | 0.00 | 99 | 1014.3 | |
| 20260508095042 | 41 | 0.0 | 0.0 | 0.00 | 0.00 | 0.00 | 99 | 1014.3 | |
| 20260508094025 | 41 | 0.0 | 0.0 | 0.00 | 0.00 | 0.00 | 99 | 1014.3 | |
| 20260508093024 | 41 | 0.0 | 0.0 | 0.00 | 0.00 | 0.00 | 99 | 1014.3 | |
| 20260508092016 | 42 | 0.0 | 0.0 | 0.00 | 0.00 | 0.00 | 99 | 1014.5 | |
| 20260508091020 | 42 | 0.0 | 0.0 | 0.00 | 0.00 | 0.00 | 99 | 1014.4 | |
| 20260508090019 | 42 | 0.0 | 0.0 | 0.00 | 0.00 | 0.00 | 99 | 1014.4 | |
| 20260508085016 | 42 | 0.0 | 0.0 | 0.00 | 0.00 | 0.00 | 99 | 1014.4 | |
| 20260508084033 | 43 | 0.0 | 0.0 | 0.00 | 0.00 | 0.00 | 99 | 1014.4 | |
| 20260508083019 | 43 | 0.0 | 0.0 | 0.00 | 0.00 | 0.00 | 99 | 1014.4 | |
| 20260508082023 | 44 | 0.0 | 0.0 | 0.00 | 0.00 | 0.00 | 99 | 1014.5 | |
| 20260508081028 | 44 | 0.0 | 0.0 | 0.00 | 0.00 | 0.00 | 99 | 1014.5 | |
| 20260508080031 | 44 | 0.0 | 0.0 | 0.00 | 0.00 | 0.00 | 99 | 1014.5 | |
| 20260508075018 | 45 | 0.0 | 0.0 | 0.00 | 0.00 | 0.00 | 99 | 1014.6 | |
| 20260508074043 | 45 | 0.0 | 0.0 | 0.00 | 0.00 | 0.00 | 99 | 1014.6 | |
| 20260508073027 | 45 | 0.0 | 0.0 | 0.00 | 0.00 | 0.00 | 99 | 1014.6 | |
| 20260508072030 | 45 | 0.0 | 0.0 | 0.00 | 0.00 | 0.00 | 99 | 1014.7 | |
| 20260508071017 | 45 | 0.0 | 0.0 | 0.00 | 0.00 | 0.00 | 99 | 1014.7 | |
| 20260508070021 | 44 | 0.0 | 0.0 | 0.00 | 0.00 | 0.00 | 99 | 1014.7 | |
| 20260508065025 | 44 | 0.0 | 0.0 | 0.00 | 0.00 | 0.00 | 99 | 1014.6 | |
| 20260508064029 | 43 | 23 | 0.0 | 0.9 | 0.00 | 0.00 | 0.00 | 99 | 1014.6 |
| 20260508063016 | 43 | 0.0 | 0.0 | 0.00 | 0.00 | 0.00 | 99 | 1014.5 | |
| 20260508062020 | 42 | 0.0 | 0.0 | 0.00 | 0.00 | 0.00 | 99 | 1014.5 | |
| 20260508061024 | 42 | 0.0 | 0.0 | 0.00 | 0.00 | 0.00 | 99 | 1014.5 | |
| 20260508060028 | 42 | 0.0 | 0.0 | 0.00 | 0.00 | 0.00 | 99 | 1014.5 | |
| 20260508055033 | 42 | 0.0 | 0.0 | 0.00 | 0.00 | 0.00 | 99 | 1014.5 | |
| 20260508054020 | 42 | 0.0 | 0.0 | 0.00 | 0.00 | 0.00 | 99 | 1014.6 | |
| 20260508053043 | 42 | 0.0 | 0.0 | 0.00 | 0.00 | 0.00 | 99 | 1014.7 | |
| 20260508052028 | 43 | 0.0 | 0.0 | 0.00 | 0.00 | 0.00 | 99 | 1014.8 | |
| 20260508051031 | 44 | 0.0 | 0.0 | 0.00 | 0.00 | 0.00 | 99 | 1014.8 | |
| 20260508050017 | 43 | 0.0 | 0.0 | 0.00 | 0.00 | 0.00 | 99 | 1014.9 | |
| 20260508045041 | 42 | 0.0 | 0.0 | 0.00 | 0.00 | 0.00 | 99 | 1015.0 | |
| 20260508044025 | 42 | 0.0 | 0.0 | 0.00 | 0.00 | 0.00 | 99 | 1014.9 | |
| 20260508043029 | 42 | 0.0 | 0.0 | 0.00 | 0.00 | 0.00 | 99 | 1014.9 | |
| 20260508042015 | 42 | 0.0 | 0.0 | 0.00 | 0.00 | 0.00 | 99 | 1014.8 | |
| 20260508041020 | 42 | 0.0 | 0.0 | 0.00 | 0.00 | 0.00 | 99 | 1014.7 | |
| 20260508040024 | 42 | 0.0 | 0.0 | 0.00 | 0.00 | 0.00 | 99 | 1014.7 | |
| 20260508035022 | 42 | 0.0 | 0.0 | 0.00 | 0.00 | 0.00 | 99 | 1014.6 | |
| 20260508034021 | 43 | 0.0 | 0.0 | 0.00 | 0.00 | 0.00 | 99 | 1014.6 | |
| 20260508033018 | 42 | 0.0 | 0.0 | 0.00 | 0.00 | 0.00 | 99 | 1014.7 | |
| 20260508032016 | 43 | 0.0 | 0.0 | 0.00 | 0.00 | 0.00 | 99 | 1014.7 | |
| 20260508031027 | 43 | 0.0 | 0.0 | 0.00 | 0.00 | 0.00 | 99 | 1014.8 | |
| 20260508030031 | 44 | 0.0 | 0.0 | 0.00 | 0.00 | 0.00 | 98 | 1014.7 | |
| 20260508025018 | 44 | 0.0 | 0.0 | 0.00 | 0.00 | 0.00 | 97 | 1014.7 | |
| 20260508024021 | 45 | 0.0 | 0.0 | 0.00 | 0.00 | 0.00 | 99 | 1014.7 | |
| 20260508023025 | 45 | 0.0 | 0.0 | 0.00 | 0.00 | 0.00 | 94 | 1014.8 | |
| 20260508022030 | 46 | 0.0 | 0.0 | 0.00 | 0.00 | 0.00 | 92 | 1014.8 | |
| 20260508021016 | 46 | 0.0 | 0.0 | 0.00 | 0.00 | 0.00 | 94 | 1014.8 | |
| 20260508020021 | 47 | 0.0 | 0.0 | 0.00 | 0.00 | 0.00 | 91 | 1014.7 | |
| 20260508015024 | 47 | 0.0 | 0.0 | 0.00 | 0.00 | 0.00 | 90 | 1014.6 | |
| 20260508014028 | 48 | 0.0 | 0.0 | 0.00 | 0.00 | 0.00 | 87 | 1014.6 | |
| 20260508013032 | 49 | 0.0 | 0.0 | 0.00 | 0.00 | 0.00 | 82 | 1014.5 | |
| 20260508012018 | 49 | 0.0 | 0.0 | 0.00 | 0.00 | 0.00 | 81 | 1014.4 | |
| 20260508011022 | 50 | 0.0 | 0.0 | 0.00 | 0.00 | 0.00 | 79 | 1014.1 | |
| 20260508010026 | 51 | 0.0 | 0.0 | 0.00 | 0.00 | 0.00 | 72 | 1014.1 | |
| 20260508005030 | 52 | 0.0 | 0.0 | 0.00 | 0.00 | 0.00 | 69 | 1014.1 | |
| 20260508004017 | 53 | 0.0 | 0.0 | 0.00 | 0.00 | 0.00 | 67 | 1014.0 | |
| 20260508003022 | 54 | 0.0 | 0.0 | 0.00 | 0.00 | 0.00 | 63 | 1013.9 | |
| 20260508002025 | 55 | 0.0 | 0.0 | 0.00 | 0.00 | 0.00 | 58 | 1013.9 | |
| 20260508001030 | 56 | 0.0 | 0.0 | 0.00 | 0.00 | 0.00 | 55 | 1013.9 | |
| 20260508000016 | 57 | 0.0 | 0.0 | 0.00 | 0.00 | 0.00 | 54 | 1013.9 | |
| 20260507235020 | 57 | 0.0 | 0.0 | 0.00 | 0.00 | 0.00 | 53 | 1013.8 | |
| 20260507234024 | 58 | 0.0 | 0.0 | 0.00 | 0.00 | 0.00 | 51 | 1013.7 | |
| 20260507233029 | 59 | 13 | 0.0 | 1.7 | 0.00 | 0.00 | 0.00 | 49 | 1013.6 |
| 20260507232035 | 60 | 0.0 | 0.0 | 0.00 | 0.00 | 0.00 | 48 | 1013.6 | |
| 20260507231019 | 59 | 23 | 0.9 | 1.7 | 0.00 | 0.00 | 0.00 | 47 | 1013.8 |
| 20260507230043 | 59 | 337 | 0.9 | 1.7 | 0.00 | 0.00 | 0.00 | 50 | 1013.9 |
| 20260507225027 | 59 | 58 | 0.0 | 1.7 | 0.00 | 0.00 | 0.00 | 48 | 1013.9 |
| 20260507224026 | 60 | 13 | 0.9 | 1.7 | 0.00 | 0.00 | 0.00 | 48 | 1013.9 |
| 20260507223018 | 61 | 359 | 0.9 | 1.7 | 0.00 | 0.00 | 0.00 | 48 | 1013.9 |
| 20260507222042 | 63 | 323 | 0.9 | 1.7 | 0.00 | 0.00 | 0.00 | 47 | 1013.9 |
| 20260507221021 | 65 | 359 | 0.9 | 1.7 | 0.00 | 0.00 | 0.00 | 45 | 1013.8 |
| 20260507220018 | 69 | 345 | 0.9 | 1.7 | 0.00 | 0.00 | 0.00 | 41 | 1013.6 |
| 20260507215017 | 72 | 358 | 0.9 | 2.6 | 0.00 | 0.00 | 0.00 | 38 | 1013.6 |
| 20260507214015 | 72 | 294 | 0.9 | 1.7 | 0.00 | 0.00 | 0.00 | 38 | 1013.5 |
| 20260507213025 | 71 | 315 | 0.9 | 1.7 | 0.00 | 0.00 | 0.00 | 40 | 1013.4 |
| 20260507212030 | 71 | 356 | 0.9 | 2.6 | 0.00 | 0.00 | 0.00 | 40 | 1013.4 |
| 20260507211017 | 71 | 9 | 0.9 | 1.7 | 0.00 | 0.00 | 0.00 | 40 | 1013.1 |
| 20260507210020 | 72 | 338 | 0.9 | 1.7 | 0.00 | 0.00 | 0.00 | 38 | 1013.1 |
| 20260507205105 | 71 | 272 | 0.9 | 1.7 | 0.00 | 0.00 | 0.00 | 40 | 1013.1 |
| 20260507204029 | 71 | 339 | 0.9 | 2.6 | 0.00 | 0.00 | 0.00 | 40 | 1013.1 |
| 20260507203015 | 69 | 59 | 0.9 | 2.6 | 0.00 | 0.00 | 0.00 | 42 | 1013.1 |
| 20260507202019 | 70 | 291 | 1.7 | 2.6 | 0.00 | 0.00 | 0.00 | 42 | 1013.1 |
| 20260507201023 | 71 | 249 | 0.9 | 1.7 | 0.00 | 0.00 | 0.00 | 41 | 1013.1 |
| 20260507200047 | 72 | 301 | 0.9 | 1.7 | 0.00 | 0.00 | 0.00 | 40 | 1013.1 |
| 20260507195032 | 72 | 325 | 0.9 | 1.7 | 0.00 | 0.00 | 0.00 | 43 | 1013.3 |
| 20260507194018 | 71 | 285 | 0.9 | 1.7 | 0.00 | 0.00 | 0.00 | 42 | 1013.4 |
| 20260507193042 | 72 | 315 | 0.9 | 1.7 | 0.00 | 0.00 | 0.00 | 40 | 1013.4 |
| 20260507192027 | 73 | 270 | 0.9 | 1.7 | 0.00 | 0.00 | 0.00 | 42 | 1013.6 |
| 20260507191031 | 72 | 338 | 0.9 | 1.7 | 0.00 | 0.00 | 0.00 | 42 | 1013.4 |
| 20260507190017 | 70 | 108 | 1.7 | 3.5 | 0.00 | 0.00 | 0.00 | 43 | 1013.6 |
| 20260507185021 | 71 | 254 | 1.7 | 2.6 | 0.00 | 0.00 | 0.00 | 42 | 1013.6 |
| 20260507184025 | 72 | 241 | 1.7 | 6.1 | 0.00 | 0.00 | 0.00 | 42 | 1013.6 |
| 20260507183029 | 71 | 224 | 1.7 | 4.3 | 0.00 | 0.00 | 0.00 | 43 | 1013.6 |
| 20260507182017 | 71 | 249 | 1.7 | 3.5 | 0.00 | 0.00 | 0.00 | 42 | 1013.4 |
| 20260507181020 | 70 | 248 | 0.9 | 2.6 | 0.00 | 0.00 | 0.00 | 42 | 1013.8 |
| 20260507180024 | 70 | 320 | 1.7 | 2.6 | 0.00 | 0.00 | 0.00 | 41 | 1013.9 |
| 20260507175029 | 69 | 295 | 1.7 | 3.5 | 0.00 | 0.00 | 0.00 | 41 | 1013.9 |
| 20260507174054 | 67 | 223 | 1.7 | 3.5 | 0.00 | 0.00 | 0.00 | 45 | 1014.0 |
| 20260507173020 | 70 | 354 | 1.7 | 2.6 | 0.00 | 0.00 | 0.00 | 42 | 1014.1 |
| 20260507172023 | 71 | 318 | 0.9 | 1.7 | 0.00 | 0.00 | 0.00 | 43 | 1014.1 |
| 20260507171028 | 71 | 337 | 0.9 | 3.5 | 0.00 | 0.00 | 0.00 | 43 | 1014.3 |
| 20260507170046 | 70 | 252 | 1.7 | 2.6 | 0.00 | 0.00 | 0.00 | 43 | 1014.4 |
| 20260507165018 | 66 | 234 | 1.7 | 3.5 | 0.00 | 0.00 | 0.00 | 47 | 1014.4 |
| 20260507164022 | 68 | 318 | 0.9 | 1.7 | 0.00 | 0.00 | 0.00 | 43 | 1014.4 |
| 20260507163021 | 68 | 202 | 1.7 | 2.6 | 0.00 | 0.00 | 0.00 | 46 | 1014.5 |
| 20260507162019 | 64 | 192 | 1.7 | 3.5 | 0.00 | 0.00 | 0.00 | 49 | 1014.5 |
| 20260507161038 | 68 | 314 | 0.9 | 1.7 | 0.00 | 0.00 | 0.00 | 44 | 1014.5 |
| 20260507160035 | 67 | 330 | 0.9 | 2.6 | 0.00 | 0.00 | 0.00 | 45 | 1014.4 |
| 20260507155025 | 69 | 4 | 0.9 | 1.7 | 0.00 | 0.00 | 0.00 | 43 | 1014.3 |
| 20260507154029 | 68 | 268 | 0.9 | 1.7 | 0.00 | 0.00 | 0.00 | 46 | 1014.2 |
| 20260507153015 | 67 | 279 | 0.9 | 1.7 | 0.00 | 0.00 | 0.00 | 47 | 1014.1 |
| 20260507152039 | 67 | 354 | 0.9 | 1.7 | 0.00 | 0.00 | 0.00 | 45 | 1014.3 |
| 20260507151023 | 67 | 336 | 1.7 | 1.7 | 0.00 | 0.00 | 0.00 | 47 | 1014.3 |
| 20260507150058 | 65 | 9 | 0.9 | 1.7 | 0.00 | 0.00 | 0.00 | 51 | 1014.4 |
| 20260507145032 | 65 | 222 | 1.7 | 3.5 | 0.00 | 0.00 | 0.00 | 51 | 1014.4 |
| 20260507144018 | 61 | 260 | 0.9 | 2.6 | 0.00 | 0.00 | 0.00 | 56 | 1014.4 |
| 20260507143022 | 60 | 181 | 1.7 | 3.5 | 0.00 | 0.00 | 0.00 | 59 | 1014.4 |
| 20260507142026 | 63 | 179 | 1.7 | 4.3 | 0.00 | 0.00 | 0.00 | 58 | 1014.6 |
| 20260507141030 | 62 | 347 | 0.9 | 2.6 | 0.00 | 0.00 | 0.00 | 58 | 1014.7 |
| 20260507140017 | 62 | 29 | 0.9 | 1.7 | 0.00 | 0.00 | 0.00 | 61 | 1014.9 |
| 20260507135021 | 59 | 191 | 0.9 | 3.5 | 0.00 | 0.00 | 0.00 | 64 | 1014.9 |
| 20260507134026 | 60 | 8 | 0.9 | 1.7 | 0.00 | 0.00 | 0.00 | 67 | 1015.0 |
| 20260507133050 | 57 | 203 | 0.9 | 2.6 | 0.00 | 0.00 | 0.00 | 73 | 1014.9 |
| 20260507132117 | 54 | 163 | 0.9 | 2.6 | 0.00 | 0.00 | 0.00 | 79 | 1015.1 |